User: anonymous   Login
Location: Unspecified
(0.0000°N, 0.0000°E)
Time: 04:47:09
(UTC+00:00)
Language:

Syncom 3 - Orbit

View from above orbital plane
View from above orbital plane
View from above satellite
View from above satellite

Ground track
Ground track

The orbit data is extracted from the following two-line orbital elements,

1   858U 64047A   18020.61084549 -.00000065 +00000-0 +00000-0 0  9992
2   858 000.5736 339.3389 0005260 281.0783 244.4085 01.00262056022692
Epoch (UTC): 20 January 2018 14:39:37
Eccentricity: 0.0005260
inclination: 0.5736°
perigee height: 35767 km
apogee height: 35811 km
right ascension of ascending node: 339.3389°
argument of perigee: 281.0783°
revolutions per day: 1.00262056
mean anomaly at epoch: 244.4085°
orbit number at epoch: 2269

The dashed part of the orbit path shows where the satellite is in the earth's shadow,  

DLR